This is the latest recevied weather packets stored in our database for station/object NR6G-12. If no packets are shown the sender has not sent any weather packets the latest 10 day(s).
| Time | Temp. | Humidity | Pressure | Rain* | Wind** | Luminosity | Snow |
|---|---|---|---|---|---|---|---|
| 1778087162 | 10.56° C | 84% | 1019.6 hPa | 0 mm | - | - | - |
| 1778086802 | 10.56° C | 83% | 1019.5 hPa | 0 mm | - | - | - |
| 1778086442 | 10.56° C | 85% | 1019.6 hPa | 0 mm | - | - | - |
| 1778086082 | 10.56° C | 84% | 1019.6 hPa | 0 mm | - | - | - |
| 1778085722 | 10.56° C | 83% | 1019.6 hPa | 0 mm | - | - | - |
| 1778085362 | 10.56° C | 84% | 1019.6 hPa | 0 mm | - | - | - |
| 1778085002 | 10.56° C | 82% | 1019.7 hPa | 0 mm | - | - | - |
| 1778084642 | 10.56° C | 86% | 1019.7 hPa | 0 mm | - | - | - |
| 1778084282 | 10° C | 84% | 1019.8 hPa | 0 mm | - | - | - |
| 1778083743 | 10° C | 87% | 1019.7 hPa | 0 mm | - | - | - |
| 1778083383 | 9.44° C | 89% | 1019.8 hPa | 0 mm | - | - | - |
| 1778083023 | 9.44° C | 87% | 1019.7 hPa | 0 mm | - | - | - |
| 1778082663 | 8.89° C | 88% | 1019.7 hPa | 0 mm | - | - | - |
| 1778082303 | 8.89° C | 89% | 1019.6 hPa | 0 mm | - | - | - |
| 1778081943 | 8.89° C | 89% | 1019.5 hPa | 0 mm | - | - | - |
| 1778081583 | 8.89° C | 90% | 1018.8 hPa | 0 mm | - | - | - |
| 1778081223 | 8.89° C | 89% | 1019 hPa | 0 mm | - | - | - |
| 1778080863 | 8.33° C | 92% | 1018.9 hPa | 0 mm | - | - | - |
| 1778080503 | 8.33° C | 90% | 1018.7 hPa | 0 mm | - | - | - |
| 1778080143 | 7.78° C | 90% | 1018.9 hPa | 0 mm | - | - | - |
| 1778079783 | 7.78° C | 91% | 1018.9 hPa | 0 mm | - | - | - |
| 1778079423 | 7.22° C | 92% | 1018.8 hPa | 0 mm | - | - | - |
| 1778079063 | 6.67° C | 93% | 1018.7 hPa | 0 mm | - | - | - |
| 1778078703 | 6.67° C | 92% | 1018.5 hPa | 0 mm | - | - | - |
| 1778078343 | 6.11° C | 92% | 1018.6 hPa | 0 mm | - | - | - |
* Rain latest hour (hover to see other rain measurements)
** Current wind speed in m/s (hover to see current wind gust speed)